This demonstration page uses our WeatherBlox Daily Observations layout. Learn more.

Left ArrowRight Arrow

40.97296, -117.73568

Hourly Observations for August 22, 2020

Temp ( °F °C ) Dew Point ( °F °C ) Humidity (%) Winds ( mph kmh ) Pressure ( in mb ) Visibility ( mi km ) Precip ( " mm )
12:56 am 00:56 Cloudy with Haze 67 19.4 18 -7.8 15 15 VRB 7 11 29.86 1011 3 4 0.00 0.00
1:56 am 01:56 Cloudy with Haze 62 16.7 19 -7.2 19 19 Calm 29.87 1012 3 4 0.00 0.00
2:56 am 02:56 Cloudy with Haze 56 13.3 26 -3.3 32 32 SSE 8 13 29.88 1012 3 4 0.00 0.00
3:56 am 03:56 Cloudy with Haze 58 14.4 21 -6.1 24 24 SE 5 7 29.88 1012 3 4 0.00 0.00
4:56 am 04:56 Cloudy with Haze 54 12.2 23 -5 30 30 SSE 7 11 29.90 1012 3 4 0.00 0.00
5:56 am 05:56 Cloudy with Haze 53 11.7 23 -5 31 31 SSE 5 7 29.91 1013 3 4 0.00 0.00
6:18 am 06:18 Cloudy with Haze 52 11.1 23 -5 32 32 SE 3 6 29.98 1015 2 3 0.00 0.00
6:56 am 06:56 Cloudy with Haze 55 12.8 24 -4.4 30 30 ENE 3 6 29.93 1014 2 3 0.00 0.00
7:56 am 07:56 Cloudy with Haze 61 16.1 26 -3.3 26 26 Calm 29.96 1014 2 3 0.00 0.00
8:56 am 08:56 Mostly Cloudy with Haze 67 19.4 24 -4.4 20 20 SSE 3 6 29.96 1015 2 3 0.00 0.00
9:35 am 09:35 Mostly Cloudy with Haze 71 21.7 26 -3.3 19 19 Calm 29.85 1011 2 3 0.00 0.00
9:56 am 09:56 Hazy 76 24.4 27 -2.8 16 16 Calm 29.94 1014 2 3 0.00 0.00
10:34 am 10:34 Mostly Cloudy with Haze 82 27.8 31 -0.6 16 16 Calm 29.76 1008 2 3 0.00 0.00
10:56 am 10:56 Hazy 84 28.9 30 -1.1 14 14 VRB 3 6 29.92 1013 2 3 0.00 0.00
11:56 am 11:56 Hazy 89 31.7 26 -3.3 10 10 VRB 7 11 29.92 1013 2 2 0.00 0.00
12:46 pm 12:46 Hazy 91 32.8 22 -5.6 8 8 Calm 29.65 1004 2 3 0.00 0.00
12:56 pm 12:56 Hazy 92 33.3 23 -5 8 8 WNW 12 19 29.88 1012 2 3 0.00 0.00
1:56 pm 13:56 Hazy 93 33.9 24 -4.4 8 8 VRB 3 6 29.87 1012 3 5 0.00 0.00
2:05 pm 14:05 Hazy 95 35 24 -4.4 8 8 NW 13 20 29.61 1003 3 4 0.00 0.00
2:40 pm 14:40 Hazy 96 35.6 22 -5.6 7 7 W 10 17 29.58 1002 3 5 0.00 0.00
2:56 pm 14:56 Hazy 97 36.1 19 -7.2 6 6 W 12 19 29.86 1011 4 6 0.00 0.00
3:56 pm 15:56 Hazy 96 35.6 14 -10 5 5 W 14 22 29.84 1011 4 6 0.00 0.00
4:56 pm 16:56 Hazy 95 35 13 -10.6 5 5 W 12 19 29.84 1010 4 6 0.00 0.00
5:56 pm 17:56 Hazy 93 33.9 12 -11.1 5 5 SW 5 7 29.83 1010 5 8 0.00 0.00
6:56 pm 18:56 Hazy 89 31.7 18 -7.8 7 7 WSW 5 7 29.84 1011 4 6 0.00 0.00
7:56 pm 19:56 Cloudy with Haze 81 27.2 23 -5 12 12 W 3 6 29.85 1011 5 8 0.00 0.00
8:56 pm 20:56 Hazy 75 23.9 22 -5.6 14 14 E 6 9 29.87 1012 5 8 0.00 0.00
9:56 pm 21:56 Hazy 68 20 26 -3.3 21 21 SSE 5 7 29.88 1012 5 8 0.00 0.00
10:56 pm 22:56 Hazy 64 17.8 24 -4.4 22 22 SE 6 9 29.87 1012 5 8 0.00 0.00
11:56 pm 23:56 Hazy 60 15.6 24 -4.4 25 25 S 3 6 29.88 1012 6 10 0.00 0.00

Powered by AerisWeather